SCP
-0 0 0 -0 0 0 0 0 0 0 0 0 0 0 0 0 0 0 0 0 0 -0 -0 -0 -0 -0 -0 -0 -0 -0 -0 -0 -0 -0 -0 -0 0 0 0 -0 0 0 0 0 0 0 0 0 0
-0 0 0 -0 -0 0 0 0 0 0 0 0 0 0 0 0 0 0 0 0 0 -0 -0 -0 -0 -0 -0 -0 -0 -0 -0 -0 -0 -0 -0 0 0 0 0 0 0 0 0 0 0 0 0 0 0
-0 0 0 0 0 0 0 0 0 0 0 0 0 0 0 0 0 0 0 0 0 0 0 0 -0 -0 -0 -0 -0 -0 -0 -0 -0 -0 -0 -0 -0 0 0 0 0 0 0 0 0 0 0 0 0
-0 0 0 0 0 0 0 0 0 0 0 0 0 0 0 0 0 0 0 0 0 0 0 -0 -0 -0 -0 -0 -0 -0 -0 -0 -0 -0 -0 -0 0 0 0 0 0 0 0 0 0 0 0 0 0
0 0 0 0 0 0 0 0 0 0 0 0 0 0 0 0 0 0 0 0 0 0 0 -0 -0 -0 -0 -0 -0 -0 -0 -0 -0 -0 -0 0 -0 -0 0 0 0 0 0 0 0 0 0 0 0
0 0 0 0 0 0 0 0 0 0 0 0 0 0 0 0 0 0 0 0 0 0 0 0 -0 -0 -0 -0 -0 -0 -0 0 0 0 0 -0 -0 0 0 0 0 0 0 0 0 0 0 0 0
0 0 0 0 0 0 0 0 0 0 0 0 0 0 0 0 0 0 0 0 0 0 0 0 0 0 0 -0 -0 -0 -0 -0 0 0 0 0 0 0 0 0 0 0 0 0 0 0 0 0 0
0 0 0 0 0 0 0 0 0 0 0 0 0 0 0 0 0 0 0 0 0 0 0 0 0 0 0 0 0 0 0 0 0 0 0 0 0 0 0 0 0 0 0 0 0 0 0 0 0
0 0 0 0 0 0 0 0 0 0 0 0 0 0 0 0 0 0 0 0 0 0 0 0 0 0 0 0 0 0 0 0 0 0 0 0 0 0 0 0 0 0 0 0 0 0 0 0 0
0 0 0 0 0 0 0 0 0 0 0 0 0 0 0 0 0 0 0 0 0 0 0 0 0 0 0 0 0 0 0 0 0 0 0 0 0 0 0 0 0 0 0 0 0 0 0 0 0
0 0 0 0 0 0 0 0 0 0 0 0 0 0 0 0 0 0 0 0 0 0 0 0 0 0 0 0 0 0 0 0 0 0 0 0 0 0 0 0 0 0 0 0 0 0 0 0 0
0 0 0 0 0 0 0 0 0 0 0 0 0 0 0 0 0 0 0 0 0 0 0 0 0 0 0 0 0 0 0 0 0 0 0 0 0 0 0 0 0 0 0 0 0 0 0 0 0
0 0 0 0 0 0 0 0 0 0 0 0 0 0 0 0 0 0 0 0 0 0 0 0 0 0 0 0 0 0 0 0 0 0 0 0 0 0 0 0 0 0 0 0 0 0 0 0 0
0 0 0 0 0 0 0 0 0 0 0 0 0 0 0 0 0 0 0 0 0 0 0 0 0 0 0 0 0 0 0 0 0 0 0 0 0 0 0 0 0 0 0 0 0 0 0 0 0
0 0 0 0 0 0 0 0 0 0 0 0 0 0 0 0 0 0 0 0 0 0 0 0 0 0 0 0 0 0 0 0 0 0 0 0 0 0 0 0 0 0 0 0 0 0 0 0 0
0 0 0 0 0 0 0 0 0 0 0 0 0 0 0 0 0 0 0 0 0 0 0 0 0 0 0 0 0 0 0 0 0 0 0 0 0 0 0 0 0 0 0 0 0 0 0 0 0
0 0 0 0 0 0 0 0 0 0 0 0 0 0 0 0 0 0 0 0 0 0 0 0 0 0 0 0 0 0 0 0 0 0 0 0 0 0 0 0 0 0 0 0 0 0 0 0 0
0 0 0 0 0 0 0 0 0 0 0 0 0 0 0 0 0 0 0 0 0 0 0 0 0 0 0 0 0 0 0 0 0 0 0 0 0 0 0 0 0 0 0 0 0 0 0 0 0
0 0 0 0 0 0 0 0 0 0 0 0 0 0 0 0 0 0 0 0 0 0 0 0 0 0 0 0 0 0 0 0 0 0 0 0 0 0 0 0 0 0 0 0 0 0 0 0 0
0 0 0 0 0 0 0 0 0 0 0 0 0 0 0 0 0 0 0 0 0 0 0 0 0 0 0 0 0 0 0 0 0 0 0 0 0 0 0 0 0 0 0 0 0 0 0 0 0
0 0 0 0 0 0 0 0 0 0 0 0 0 0 0 0 0 0 0 0 0 0 0 0 0 0 0 0 0 0 0 0 0 0 0 0 0 0 0 0 0 0 0 0 0 0 0 0 0
0 0 0 0 0 0 0 0 0 0 0 0 0 0 0 0 0 0 0 0 0 0 0 0 0 0 0 0 0 0 0 0 0 0 0 0 0 0 0 0 0 0 0 0 0 0 0 0 0
0 0 0 0 0 0 0 0 0 0 0 0 0 0 0 0 0 0 0 0 0 0 0 0 0 0 0 0 0 -0 -0 -0 -0 0 0 0 0 0 0 0 0 0 0 0 0 0 0 0 0
0 0 0 0 0 0 0 0 0 0 0 0 0 0 0 0 0 0 0 0 0 0 0 0 0 0 -0 -0 -0 -0 -0 -0 -0 -0 -0 0 0 0 0 0 0 0 0 0 0 0 0 0 0
0 0 0 0 0 0 0 0 0 0 0 0 0 0 0 0 0 0 0 0 0 0 0 -0 -0 -0 -0 -0 -0 -0 -0 -0 -0 -0 -0 0 0 0 0 0 0 0 0 0 0 0 0 0 0
0 0 0 0 0 0 0 0 0 0 0 0 0 0 0 0 0 0 0 0 0 0 -0 -0 -0 -0 -0 -0 -0 -0 -0 -0 -0 -0 0 0 0 0 0 0 0 0 0 0 0 0 0 0 0
0 0 0 0 0 0 0 0 0 0 0 0 0 0 0 0 0 0 0 0 0 -0 -0 -0 -0 -0 0 0 0 0 0 0 0 0 0 0 0 0 0 0 0 0 0 0 0 0 0 0 0
0 0 0 0 0 0 0 0 0 0 0 0 0 0 0 0 0 0 0 0 -0 -0 -0 -0 0 0 0 0 0 0 0 0 0 0 0 0 0 0 0 0 0 0 0 0 0 0 0 0 0
0 0 0 0 0 0 0 0 0 0 0 0 0 0 0 0 0 0 0 0 0 0 0 0 0 0 0 0 -0 -0 -0 -0 -0 -0 0 0 0 0 0 0 0 0 0 0 0 0 0 0 0
0 0 0 0 0 0 0 0 0 0 0 0 0 0 0 0 0 0 0 0 0 0 0 0 0 0 -0 -0 0 -0 0 0 0 0 0 0 0 0 0 0 0 0 0 0 0 0 0 0 0
Wind_Speed_500mb
11 10 7 2 7 10 2 4 4 2 3 1 2 3 3 3 6 7 2 7 5 16 27 36 36 34 33 33 33 31 29 25 23 21 18 15 12 11 10 7 9 8 5 3 1 3 4 4 3
9 7 2 4 9 7 8 8 5 5 3 2 1 2 2 4 4 4 1 5 7 11 20 34 36 35 34 31 31 30 28 24 23 22 19 16 14 15 15 13 16 10 7 5 4 5 6 5 5
8 5 3 8 7 7 7 7 6 4 1 5 2 1 3 4 3 4 4 5 6 13 16 28 35 36 35 33 32 30 28 25 23 22 21 17 14 10 14 14 12 8 6 8 7 7 9 8 8
7 4 9 8 2 6 6 7 6 2 2 3 3 3 3 5 4 4 4 2 6 10 12 23 32 35 36 35 34 32 30 28 26 26 24 21 26 14 16 17 15 14 9 8 7 8 9 9 10
7 6 8 6 7 8 6 5 4 4 2 4 3 7 7 7 9 4 2 3 2 7 12 17 30 35 36 36 36 35 33 29 27 24 23 27 25 22 18 17 18 18 12 10 10 10 9 9 8
5 5 9 0 8 9 11 7 5 5 3 1 2 3 6 7 8 7 2 2 2 4 11 16 23 35 38 38 37 37 36 31 27 27 28 31 27 29 18 18 19 17 14 13 13 12 11 10 8
9 7 7 5 6 10 7 19 5 5 3 2 3 3 8 8 8 10 10 6 4 7 14 18 22 31 39 41 40 39 38 35 30 32 34 35 33 32 21 17 20 19 17 17 14 12 11 11 11
5 9 3 5 4 5 8 17 7 5 3 3 2 5 6 22 21 17 17 15 12 11 15 19 22 27 36 42 43 42 41 39 35 34 36 36 34 32 24 19 20 20 20 20 16 15 14 14 13
3 8 2 8 8 6 10 10 7 19 11 9 18 17 21 30 20 15 21 23 20 17 15 19 24 28 32 36 42 44 43 42 40 37 38 38 37 34 27 22 21 20 22 23 18 17 17 17 17
7 7 16 10 6 6 11 5 16 11 28 7 20 30 26 19 19 27 29 27 29 29 26 22 27 31 32 34 38 45 46 45 43 41 39 42 38 37 32 28 25 23 25 27 23 20 19 21 20
8 10 9 10 19 11 7 7 5 7 13 39 35 40 26 27 22 26 32 35 39 39 35 32 28 31 33 34 37 42 47 47 46 43 42 38 41 40 36 33 30 29 30 29 28 25 21 24 24
3 17 13 7 8 8 8 8 9 19 46 50 40 33 17 14 15 14 18 23 32 37 39 39 34 30 32 31 33 36 44 46 43 44 43 41 42 43 40 36 34 34 35 35 32 29 27 27 28
6 8 16 25 31 25 25 29 17 49 50 28 9 18 13 13 17 18 22 28 35 33 28 35 36 33 27 27 26 28 34 41 43 43 42 43 43 43 41 38 38 39 41 40 37 34 32 31 33
2 10 22 26 43 25 13 11 6 12 6 13 10 10 12 13 19 20 26 36 33 36 32 28 31 31 30 28 20 17 19 25 32 37 37 42 43 41 42 42 39 38 41 39 39 38 37 38 39
6 11 15 20 17 9 6 3 13 16 19 14 11 11 7 12 14 18 17 19 21 20 22 29 27 28 28 27 22 15 11 15 21 24 28 28 29 34 35 38 38 36 38 36 36 38 41 42 44
5 5 7 6 4 1 9 15 12 17 25 15 6 5 6 8 11 13 13 14 14 10 6 12 22 25 26 28 23 17 11 16 20 21 26 28 29 28 31 33 33 35 33 31 32 37 40 41 43
7 7 10 16 5 4 6 12 17 33 39 13 14 14 16 17 15 14 14 16 18 16 9 11 19 23 23 25 22 18 18 15 16 18 19 21 25 28 28 31 31 32 30 31 36 38 41 41 43
11 9 9 10 3 6 7 15 21 40 29 7 23 24 24 25 26 20 17 20 21 21 22 21 20 20 19 18 19 19 15 11 13 13 17 23 20 18 22 28 29 29 32 37 39 41 40 42 42
5 8 9 8 9 1 13 11 13 28 23 28 29 32 36 40 37 32 30 28 26 24 22 23 18 23 16 16 16 13 11 9 11 8 12 15 19 25 27 26 25 28 33 36 37 39 40 43 45
9 7 12 9 11 7 13 17 7 23 17 21 29 34 40 45 47 49 50 50 49 48 46 41 39 32 26 17 15 13 7 6 4 6 10 13 15 17 20 24 23 24 25 29 32 35 39 42 43
10 12 8 15 6 5 5 13 6 12 27 31 30 33 38 45 50 54 57 61 60 62 61 59 56 51 46 39 31 25 20 16 10 9 8 8 10 11 12 16 19 22 25 23 23 26 33 40 40
9 14 13 7 6 7 2 8 2 9 11 17 25 33 37 41 45 50 52 54 54 54 50 49 46 44 40 34 30 25 26 24 26 24 23 20 16 14 15 18 20 22 26 28 30 32 33 34 40
13 8 10 7 6 4 5 1 9 13 9 8 17 28 32 36 40 44 46 47 47 44 45 42 36 32 29 27 25 23 23 23 20 17 17 18 21 22 23 22 22 23 26 30 33 33 36 40 43
7 8 12 9 6 1 15 13 7 9 8 13 20 28 31 34 37 38 37 37 39 36 33 32 28 29 26 24 24 23 24 23 21 22 24 26 27 27 26 27 28 30 30 32 34 35 36 37 41
7 10 4 7 3 10 6 6 11 6 8 28 37 40 35 32 30 29 27 28 28 26 27 26 24 24 23 23 22 23 24 24 26 29 32 34 35 37 38 39 39 40 39 37 38 41 41 40 42
10 12 10 12 6 7 3 11 7 2 10 46 54 46 37 32 26 20 18 18 19 22 23 23 22 21 22 24 27 29 29 31 34 36 38 40 42 43 44 45 46 48 48 47 44 44 46 46 46
9 8 9 11 5 5 8 5 3 9 10 30 43 41 37 31 23 15 11 10 14 16 17 18 20 21 21 22 23 24 26 29 33 36 39 41 46 50 53 53 53 54 55 56 57 55 54 55 53
9 13 7 4 3 9 8 10 9 13 19 19 26 44 39 32 26 19 10 4 7 9 11 12 13 16 19 21 25 29 31 32 34 35 38 42 45 48 50 53 57 59 62 62 62 63 63 65 63
6 5 6 9 9 10 3 11 8 22 30 31 36 47 43 36 28 20 12 4 1 1 3 9 17 21 25 32 36 39 41 43 44 45 45 46 48 50 52 55 58 60 64 68 74 75 76 78 78
3 13 13 9 10 6 5 18 9 16 39 42 47 46 39 34 27 21 15 10 5 0 3 13 23 27 32 37 42 47 51 54 58 61 63 66 71 71 73 74 75 74 73 72 74 79 82 88 90
Wind_Direction_500mb
333 333 314 249 54 64 302 271 306 259 293 213 77 111 202 183 162 211 209 176 178 185 183 182 188 190 194 197 198 200 201 201 200 199 199 201 202 208 219 232 250 258 268 247 11 17 359 25 329
339 339 50 104 84 63 280 270 244 238 324 14 37 101 14 289 235 295 222 208 172 178 190 187 191 195 199 200 202 201 202 203 203 205 209 218 228 234 231 239 247 261 260 266 293 316 330 329 288
351 14 31 89 104 157 203 233 236 291 75 1 14 293 317 304 280 307 302 242 208 181 190 196 196 199 204 203 205 206 207 210 214 219 225 232 222 201 188 206 242 250 232 260 279 301 309 305 280
345 11 58 79 171 243 213 244 223 329 51 14 20 354 278 263 296 301 331 279 233 202 191 201 206 206 208 208 210 210 212 217 225 229 230 238 241 269 247 246 256 267 268 262 277 292 299 291 274
14 43 51 65 297 274 269 259 195 120 74 329 17 329 283 273 248 245 21 46 276 229 209 207 212 214 216 214 214 216 219 219 224 218 229 232 248 264 282 259 262 270 278 274 281 291 289 290 260
59 60 57 359 285 283 310 343 315 63 74 325 291 299 278 313 243 225 230 91 122 231 233 219 215 218 221 223 220 220 222 221 220 214 219 227 247 266 279 273 267 268 275 283 293 292 289 276 259
96 77 175 196 265 321 336 344 14 13 348 277 324 322 294 354 314 262 248 229 217 234 234 234 224 218 223 228 226 224 227 229 224 218 222 233 252 265 273 293 297 282 286 288 289 280 278 262 251
80 91 76 258 249 265 334 356 347 358 284 258 235 253 298 319 318 277 256 251 263 259 251 241 238 229 226 227 228 228 229 230 229 226 229 239 251 261 271 287 313 291 289 292 288 282 277 258 248
101 63 214 243 184 252 333 9 298 320 261 263 274 264 290 302 293 303 272 251 261 279 277 257 247 240 235 232 231 230 230 231 232 230 235 243 246 253 263 279 296 302 295 296 292 284 280 265 260
98 120 220 217 193 226 295 257 312 313 304 288 301 321 302 281 309 307 303 288 271 279 277 268 254 243 237 236 233 232 231 230 229 232 237 241 242 256 264 272 284 298 299 292 287 278 274 264 261
166 198 215 253 249 269 273 271 222 282 298 301 321 320 317 296 299 296 294 289 287 280 270 265 265 251 241 239 238 236 232 231 232 233 234 237 240 249 261 269 281 293 299 299 291 282 275 268 265
219 251 229 268 254 281 259 286 265 234 273 303 317 311 336 28 16 346 312 295 284 279 273 258 257 254 247 244 245 246 240 234 233 238 240 238 242 247 262 270 279 290 298 299 292 282 274 267 262
225 278 278 276 279 277 275 265 262 279 291 304 7 43 34 355 331 320 306 291 286 288 272 253 252 251 247 246 251 252 248 243 241 237 241 246 251 254 260 268 278 290 295 296 291 284 277 271 265
274 278 280 286 281 275 236 265 176 283 6 359 328 9 3 338 331 316 302 301 296 271 262 246 243 244 246 245 254 269 265 254 248 250 245 252 262 261 268 277 282 289 294 293 288 282 278 273 266
306 320 324 269 280 222 175 276 225 277 305 355 351 353 347 349 342 347 335 320 309 293 251 245 228 222 236 240 248 262 281 266 247 249 252 254 265 269 274 278 284 294 294 292 288 286 287 286 281
5 36 341 282 188 244 148 263 278 304 329 0 22 137 114 72 30 26 31 22 11 355 291 225 203 197 211 221 231 244 256 252 259 251 254 259 262 261 270 277 284 296 294 293 294 293 291 289 285
2 239 212 312 269 168 153 261 276 301 323 357 128 111 105 99 93 76 57 57 56 61 84 147 156 171 185 199 209 219 227 233 248 247 249 258 265 266 267 271 286 287 286 292 295 294 293 289 285
207 222 245 235 229 31 302 263 282 311 340 161 121 111 100 88 75 78 81 79 80 80 87 102 118 131 145 165 177 194 202 223 244 253 259 261 256 255 271 279 283 283 284 286 291 293 292 292 292
165 192 225 257 267 226 240 248 292 341 37 107 112 107 97 87 84 86 86 86 88 91 90 89 101 102 126 150 163 173 198 187 243 252 260 267 271 274 271 272 274 277 280 283 289 289 289 288 293
236 252 259 284 273 175 280 285 72 41 39 89 105 102 100 98 93 89 88 86 84 83 81 82 83 86 89 99 108 106 97 145 207 267 286 287 285 281 279 280 276 272 275 285 290 291 292 290 291
204 200 205 230 321 296 304 292 172 70 70 87 96 106 105 99 95 91 88 85 84 81 79 78 78 77 76 77 81 81 79 78 78 61 36 11 338 323 299 286 287 289 288 285 282 289 291 291 287
215 201 214 200 140 231 55 272 214 125 86 68 102 107 106 104 99 95 90 85 81 78 76 72 69 67 68 69 65 62 58 49 42 31 24 15 0 339 316 304 295 291 292 293 294 293 288 284 290
230 150 170 155 145 69 285 115 258 130 146 139 125 125 119 113 105 98 92 86 81 74 67 61 56 55 55 48 45 41 43 46 39 26 17 8 4 2 359 350 333 315 304 299 295 292 292 292 286
131 98 48 48 97 263 231 182 254 191 168 151 159 147 136 126 114 103 93 87 80 72 65 58 52 51 43 35 32 27 28 25 11 4 358 358 357 355 353 352 347 342 334 330 326 319 307 295 289
109 84 323 340 356 230 97 129 251 312 288 178 164 162 152 139 126 114 102 90 79 69 61 55 49 45 42 37 32 26 20 12 4 357 352 346 341 340 341 340 339 337 334 329 328 327 323 317 309
179 158 163 217 204 248 284 236 254 40 78 143 159 159 158 154 143 123 100 81 61 48 47 45 40 44 41 30 23 16 8 2 356 349 346 343 339 336 331 329 328 327 325 322 318 316 317 315 313
184 181 173 110 47 57 238 295 174 96 87 135 158 168 170 167 156 144 114 73 47 39 41 41 47 47 35 22 12 3 355 346 340 334 331 326 324 323 322 322 321 319 318 319 318 316 313 309 308
165 161 89 17 195 261 278 274 229 193 186 183 184 185 179 176 178 172 156 88 36 51 47 43 26 11 4 357 352 346 341 337 331 324 320 318 318 317 317 315 314 313 313 313 312 312 311 308 306
138 182 76 127 147 180 256 255 210 199 185 185 196 192 189 189 191 190 188 168 28 338 65 31 10 3 355 350 348 345 340 336 333 329 324 320 316 314 313 312 310 309 307 307 307 306 305 303 302
271 190 158 158 232 247 155 254 336 179 175 181 194 198 200 203 204 205 207 209 190 15 335 356 353 346 338 334 332 331 330 328 326 324 322 321 319 317 316 314 312 309 306 303 301 299 298 298 297
Wind_Speed_850mb
11 10 7 2 7 10 2 4 4 2 3 1 2 3 3 3 6 7 2 7 5 16 27 36 36 34 33 33 33 31 29 25 23 21 18 15 12 11 10 7 9 8 5 3 1 3 4 4 3
9 7 2 4 9 7 8 8 5 5 3 2 1 2 2 4 4 4 1 5 7 11 20 34 36 35 34 31 31 30 28 24 23 22 19 16 14 15 15 13 16 10 7 5 4 5 6 5 5
8 5 3 8 7 7 7 7 6 4 1 5 2 1 3 4 3 4 4 5 6 13 16 28 35 36 35 33 32 30 28 25 23 22 21 17 14 10 14 14 12 8 6 8 7 7 9 8 8
7 4 9 8 2 6 6 7 6 2 2 3 3 3 3 5 4 4 4 2 6 10 12 23 32 35 36 35 34 32 30 28 26 26 24 21 26 14 16 17 15 14 9 8 7 8 9 9 10
7 6 8 6 7 8 6 5 4 4 2 4 3 7 7 7 9 4 2 3 2 7 12 17 30 35 36 36 36 35 33 29 27 24 23 27 25 22 18 17 18 18 12 10 10 10 9 9 8
5 5 9 0 8 9 11 7 5 5 3 1 2 3 6 7 8 7 2 2 2 4 11 16 23 35 38 38 37 37 36 31 27 27 28 31 27 29 18 18 19 17 14 13 13 12 11 10 8
9 7 7 5 6 10 7 19 5 5 3 2 3 3 8 8 8 10 10 6 4 7 14 18 22 31 39 41 40 39 38 35 30 32 34 35 33 32 21 17 20 19 17 17 14 12 11 11 11
5 9 3 5 4 5 8 17 7 5 3 3 2 5 6 22 21 17 17 15 12 11 15 19 22 27 36 42 43 42 41 39 35 34 36 36 34 32 24 19 20 20 20 20 16 15 14 14 13
3 8 2 8 8 6 10 10 7 19 11 9 18 17 21 30 20 15 21 23 20 17 15 19 24 28 32 36 42 44 43 42 40 37 38 38 37 34 27 22 21 20 22 23 18 17 17 17 17
7 7 16 10 6 6 11 5 16 11 28 7 20 30 26 19 19 27 29 27 29 29 26 22 27 31 32 34 38 45 46 45 43 41 39 42 38 37 32 28 25 23 25 27 23 20 19 21 20
8 10 9 10 19 11 7 7 5 7 13 39 35 40 26 27 22 26 32 35 39 39 35 32 28 31 33 34 37 42 47 47 46 43 42 38 41 40 36 33 30 29 30 29 28 25 21 24 24
3 17 13 7 8 8 8 8 9 19 46 50 40 33 17 14 15 14 18 23 32 37 39 39 34 30 32 31 33 36 44 46 43 44 43 41 42 43 40 36 34 34 35 35 32 29 27 27 28
6 8 16 25 31 25 25 29 17 49 50 28 9 18 13 13 17 18 22 28 35 33 28 35 36 33 27 27 26 28 34 41 43 43 42 43 43 43 41 38 38 39 41 40 37 34 32 31 33
2 10 22 26 43 25 13 11 6 12 6 13 10 10 12 13 19 20 26 36 33 36 32 28 31 31 30 28 20 17 19 25 32 37 37 42 43 41 42 42 39 38 41 39 39 38 37 38 39
6 11 15 20 17 9 6 3 13 16 19 14 11 11 7 12 14 18 17 19 21 20 22 29 27 28 28 27 22 15 11 15 21 24 28 28 29 34 35 38 38 36 38 36 36 38 41 42 44
5 5 7 6 4 1 9 15 12 17 25 15 6 5 6 8 11 13 13 14 14 10 6 12 22 25 26 28 23 17 11 16 20 21 26 28 29 28 31 33 33 35 33 31 32 37 40 41 43
7 7 10 16 5 4 6 12 17 33 39 13 14 14 16 17 15 14 14 16 18 16 9 11 19 23 23 25 22 18 18 15 16 18 19 21 25 28 28 31 31 32 30 31 36 38 41 41 43
11 9 9 10 3 6 7 15 21 40 29 7 23 24 24 25 26 20 17 20 21 21 22 21 20 20 19 18 19 19 15 11 13 13 17 23 20 18 22 28 29 29 32 37 39 41 40 42 42
5 8 9 8 9 1 13 11 13 28 23 28 29 32 36 40 37 32 30 28 26 24 22 23 18 23 16 16 16 13 11 9 11 8 12 15 19 25 27 26 25 28 33 36 37 39 40 43 45
9 7 12 9 11 7 13 17 7 23 17 21 29 34 40 45 47 49 50 50 49 48 46 41 39 32 26 17 15 13 7 6 4 6 10 13 15 17 20 24 23 24 25 29 32 35 39 42 43
10 12 8 15 6 5 5 13 6 12 27 31 30 33 38 45 50 54 57 61 60 62 61 59 56 51 46 39 31 25 20 16 10 9 8 8 10 11 12 16 19 22 25 23 23 26 33 40 40
9 14 13 7 6 7 2 8 2 9 11 17 25 33 37 41 45 50 52 54 54 54 50 49 46 44 40 34 30 25 26 24 26 24 23 20 16 14 15 18 20 22 26 28 30 32 33 34 40
13 8 10 7 6 4 5 1 9 13 9 8 17 28 32 36 40 44 46 47 47 44 45 42 36 32 29 27 25 23 23 23 20 17 17 18 21 22 23 22 22 23 26 30 33 33 36 40 43
7 8 12 9 6 1 15 13 7 9 8 13 20 28 31 34 37 38 37 37 39 36 33 32 28 29 26 24 24 23 24 23 21 22 24 26 27 27 26 27 28 30 30 32 34 35 36 37 41
7 10 4 7 3 10 6 6 11 6 8 28 37 40 35 32 30 29 27 28 28 26 27 26 24 24 23 23 22 23 24 24 26 29 32 34 35 37 38 39 39 40 39 37 38 41 41 40 42
10 12 10 12 6 7 3 11 7 2 10 46 54 46 37 32 26 20 18 18 19 22 23 23 22 21 22 24 27 29 29 31 34 36 38 40 42 43 44 45 46 48 48 47 44 44 46 46 46
9 8 9 11 5 5 8 5 3 9 10 30 43 41 37 31 23 15 11 10 14 16 17 18 20 21 21 22 23 24 26 29 33 36 39 41 46 50 53 53 53 54 55 56 57 55 54 55 53
9 13 7 4 3 9 8 10 9 13 19 19 26 44 39 32 26 19 10 4 7 9 11 12 13 16 19 21 25 29 31 32 34 35 38 42 45 48 50 53 57 59 62 62 62 63 63 65 63
6 5 6 9 9 10 3 11 8 22 30 31 36 47 43 36 28 20 12 4 1 1 3 9 17 21 25 32 36 39 41 43 44 45 45 46 48 50 52 55 58 60 64 68 74 75 76 78 78
3 13 13 9 10 6 5 18 9 16 39 42 47 46 39 34 27 21 15 10 5 0 3 13 23 27 32 37 42 47 51 54 58 61 63 66 71 71 73 74 75 74 73 72 74 79 82 88 90
Wind_Direction_850mb
333 333 314 249 54 64 302 271 306 259 293 213 77 111 202 183 162 211 209 176 178 185 183 182 188 190 194 197 198 200 201 201 200 199 199 201 202 208 219 232 250 258 268 247 11 17 359 25 329
339 339 50 104 84 63 280 270 244 238 324 14 37 101 14 289 235 295 222 208 172 178 190 187 191 195 199 200 202 201 202 203 203 205 209 218 228 234 231 239 247 261 260 266 293 316 330 329 288
351 14 31 89 104 157 203 233 236 291 75 1 14 293 317 304 280 307 302 242 208 181 190 196 196 199 204 203 205 206 207 210 214 219 225 232 222 201 188 206 242 250 232 260 279 301 309 305 280
345 11 58 79 171 243 213 244 223 329 51 14 20 354 278 263 296 301 331 279 233 202 191 201 206 206 208 208 210 210 212 217 225 229 230 238 241 269 247 246 256 267 268 262 277 292 299 291 274
14 43 51 65 297 274 269 259 195 120 74 329 17 329 283 273 248 245 21 46 276 229 209 207 212 214 216 214 214 216 219 219 224 218 229 232 248 264 282 259 262 270 278 274 281 291 289 290 260
59 60 57 359 285 283 310 343 315 63 74 325 291 299 278 313 243 225 230 91 122 231 233 219 215 218 221 223 220 220 222 221 220 214 219 227 247 266 279 273 267 268 275 283 293 292 289 276 259
96 77 175 196 265 321 336 344 14 13 348 277 324 322 294 354 314 262 248 229 217 234 234 234 224 218 223 228 226 224 227 229 224 218 222 233 252 265 273 293 297 282 286 288 289 280 278 262 251
80 91 76 258 249 265 334 356 347 358 284 258 235 253 298 319 318 277 256 251 263 259 251 241 238 229 226 227 228 228 229 230 229 226 229 239 251 261 271 287 313 291 289 292 288 282 277 258 248
101 63 214 243 184 252 333 9 298 320 261 263 274 264 290 302 293 303 272 251 261 279 277 257 247 240 235 232 231 230 230 231 232 230 235 243 246 253 263 279 296 302 295 296 292 284 280 265 260
98 120 220 217 193 226 295 257 312 313 304 288 301 321 302 281 309 307 303 288 271 279 277 268 254 243 237 236 233 232 231 230 229 232 237 241 242 256 264 272 284 298 299 292 287 278 274 264 261
166 198 215 253 249 269 273 271 222 282 298 301 321 320 317 296 299 296 294 289 287 280 270 265 265 251 241 239 238 236 232 231 232 233 234 237 240 249 261 269 281 293 299 299 291 282 275 268 265
219 251 229 268 254 281 259 286 265 234 273 303 317 311 336 28 16 346 312 295 284 279 273 258 257 254 247 244 245 246 240 234 233 238 240 238 242 247 262 270 279 290 298 299 292 282 274 267 262
225 278 278 276 279 277 275 265 262 279 291 304 7 43 34 355 331 320 306 291 286 288 272 253 252 251 247 246 251 252 248 243 241 237 241 246 251 254 260 268 278 290 295 296 291 284 277 271 265
274 278 280 286 281 275 236 265 176 283 6 359 328 9 3 338 331 316 302 301 296 271 262 246 243 244 246 245 254 269 265 254 248 250 245 252 262 261 268 277 282 289 294 293 288 282 278 273 266
306 320 324 269 280 222 175 276 225 277 305 355 351 353 347 349 342 347 335 320 309 293 251 245 228 222 236 240 248 262 281 266 247 249 252 254 265 269 274 278 284 294 294 292 288 286 287 286 281
5 36 341 282 188 244 148 263 278 304 329 0 22 137 114 72 30 26 31 22 11 355 291 225 203 197 211 221 231 244 256 252 259 251 254 259 262 261 270 277 284 296 294 293 294 293 291 289 285
2 239 212 312 269 168 153 261 276 301 323 357 128 111 105 99 93 76 57 57 56 61 84 147 156 171 185 199 209 219 227 233 248 247 249 258 265 266 267 271 286 287 286 292 295 294 293 289 285
207 222 245 235 229 31 302 263 282 311 340 161 121 111 100 88 75 78 81 79 80 80 87 102 118 131 145 165 177 194 202 223 244 253 259 261 256 255 271 279 283 283 284 286 291 293 292 292 292
165 192 225 257 267 226 240 248 292 341 37 107 112 107 97 87 84 86 86 86 88 91 90 89 101 102 126 150 163 173 198 187 243 252 260 267 271 274 271 272 274 277 280 283 289 289 289 288 293
236 252 259 284 273 175 280 285 72 41 39 89 105 102 100 98 93 89 88 86 84 83 81 82 83 86 89 99 108 106 97 145 207 267 286 287 285 281 279 280 276 272 275 285 290 291 292 290 291
204 200 205 230 321 296 304 292 172 70 70 87 96 106 105 99 95 91 88 85 84 81 79 78 78 77 76 77 81 81 79 78 78 61 36 11 338 323 299 286 287 289 288 285 282 289 291 291 287
215 201 214 200 140 231 55 272 214 125 86 68 102 107 106 104 99 95 90 85 81 78 76 72 69 67 68 69 65 62 58 49 42 31 24 15 0 339 316 304 295 291 292 293 294 293 288 284 290
230 150 170 155 145 69 285 115 258 130 146 139 125 125 119 113 105 98 92 86 81 74 67 61 56 55 55 48 45 41 43 46 39 26 17 8 4 2 359 350 333 315 304 299 295 292 292 292 286
131 98 48 48 97 263 231 182 254 191 168 151 159 147 136 126 114 103 93 87 80 72 65 58 52 51 43 35 32 27 28 25 11 4 358 358 357 355 353 352 347 342 334 330 326 319 307 295 289
109 84 323 340 356 230 97 129 251 312 288 178 164 162 152 139 126 114 102 90 79 69 61 55 49 45 42 37 32 26 20 12 4 357 352 346 341 340 341 340 339 337 334 329 328 327 323 317 309
179 158 163 217 204 248 284 236 254 40 78 143 159 159 158 154 143 123 100 81 61 48 47 45 40 44 41 30 23 16 8 2 356 349 346 343 339 336 331 329 328 327 325 322 318 316 317 315 313
184 181 173 110 47 57 238 295 174 96 87 135 158 168 170 167 156 144 114 73 47 39 41 41 47 47 35 22 12 3 355 346 340 334 331 326 324 323 322 322 321 319 318 319 318 316 313 309 308
165 161 89 17 195 261 278 274 229 193 186 183 184 185 179 176 178 172 156 88 36 51 47 43 26 11 4 357 352 346 341 337 331 324 320 318 318 317 317 315 314 313 313 313 312 312 311 308 306
138 182 76 127 147 180 256 255 210 199 185 185 196 192 189 189 191 190 188 168 28 338 65 31 10 3 355 350 348 345 340 336 333 329 324 320 316 314 313 312 310 309 307 307 307 306 305 303 302
271 190 158 158 232 247 155 254 336 179 175 181 194 198 200 203 204 205 207 209 190 15 335 356 353 346 338 334 332 331 330 328 326 324 322 321 319 317 316 314 312 309 306 303 301 299 298 298 297